Clarion, IA

9:33 PM CDT on April 28, 2017 (GMT -0500)
Clarion Municipal

Weather History for KCAV - May, 2013

Change the Weather History Date:

Tuesday, May 14, 2013

  Actual Average Record
Temperature  
Mean Temperature 76 °F -  
Max Temperature 102 °F 70 °F 102 °F (2013)
Min Temperature 51 °F 45 °F 32 °F (1966)
Cooling Degree Days 12    
Growing Degree Days 26 (Base 50)    
Moisture  
Dew Point 47 °F    
Average Humidity 42    
Maximum Humidity 88    
Minimum Humidity 13    
Precipitation  
Precipitation 0.00 in - - ()
Sea Level Pressure  
Sea Level Pressure 29.68 in    
Wind  
Wind Speed 15 mph (SSW)    
Max Wind Speed 37 mph    
Max Gust Speed 48 mph    
Visibility 10 miles    
Events      
Averages and records for this station are not official NWS values.
T = Trace of Precipitation, MM = Missing Value Source: NWS Daily Summary

Daily Weather History Graph

Daily Weather History Graph

Search for Another Location

Airport or City:

Trip Planner

Search our weather history database for the weather conditions in past years. The results will help you decide how hot, cold, wet, or windy it might be!

Date:

Astronomy

May. 14, 2013 Rise Set
Actual Time 5:53 AM CDT 8:30 PM CDT
Civil Twilight 5:20 AM CDT 9:02 PM CDT
Nautical Twilight 4:40 AM CDT 9:43 PM CDT
Astronomical Twilight 3:54 AM CDT 10:29 PM CDT
Moon 9:33 AM CDT (5/14) No Moon Set
Length of Visible Light 15h 41m
Length of Day
14h 36m
Waxing Crescent, 19% of the Moon is Illuminated
May 14
Waxing Crescent
May 17
First Quarter
May 24
Full
May 31
Last Quarter
Jun 8
New

Hourly Weather History & Observations

Time (CDT) Temp. Heat Index Dew Point Humidity Pressure Visibility Wind Dir Wind Speed Gust Speed Precip Events Conditions
12:15 AM 62.6 °F - 48.2 °F 59% 29.78 in 10.0 mi South 16.1 mph - N/A   Clear
12:35 AM 62.6 °F - 48.2 °F 59% 29.77 in 10.0 mi SSW 15.0 mph - N/A   Clear
12:55 AM 60.8 °F - 48.2 °F 63% 29.77 in 10.0 mi SSW 13.8 mph - N/A   Clear
1:15 AM 60.8 °F - 48.2 °F 63% 29.77 in 10.0 mi SSW 12.7 mph - N/A   Clear
1:35 AM 60.8 °F - 48.2 °F 63% 29.76 in 10.0 mi SSW 12.7 mph - N/A   Clear
1:55 AM 59.0 °F - 48.2 °F 67% 29.76 in 10.0 mi SSW 11.5 mph - N/A   Clear
2:15 AM 59.0 °F - 48.2 °F 67% 29.76 in 10.0 mi SSW 10.4 mph - N/A   Clear
2:35 AM 59.0 °F - 48.2 °F 67% 29.76 in 10.0 mi SSW 6.9 mph - N/A   Clear
2:55 AM 57.2 °F - 48.2 °F 72% 29.76 in 10.0 mi SSW 6.9 mph - N/A   Clear
3:15 AM 55.4 °F - 48.2 °F 77% 29.76 in 10.0 mi South 6.9 mph - N/A   Clear
3:35 AM 53.6 °F - 48.2 °F 82% 29.76 in 10.0 mi South 5.8 mph - N/A   Clear
3:55 AM 53.6 °F - 46.4 °F 77% 29.77 in 10.0 mi SSW 5.8 mph - N/A   Clear
4:15 AM 51.8 °F - 46.4 °F 82% 29.77 in 10.0 mi South 8.1 mph - N/A   Clear
4:35 AM 51.8 °F - 46.4 °F 82% 29.77 in 10.0 mi South 6.9 mph - N/A   Clear
4:55 AM 51.8 °F - 46.4 °F 82% 29.77 in - South 5.8 mph - N/A   Clear
5:15 AM 51.8 °F - 46.4 °F 82% 29.76 in 10.0 mi South 8.1 mph - N/A   Clear
5:35 AM 51.8 °F - 46.4 °F 82% 29.76 in 10.0 mi South 6.9 mph - N/A   Clear
5:55 AM 51.8 °F - 48.2 °F 88% 29.76 in 10.0 mi South 10.4 mph - N/A   Clear
6:15 AM 53.6 °F - 48.2 °F 82% 29.76 in 10.0 mi South 9.2 mph - N/A   Clear
6:35 AM 55.4 °F - 50.0 °F 82% 29.76 in 10.0 mi South 8.1 mph - N/A   Clear
6:55 AM 57.2 °F - 50.0 °F 77% 29.76 in 10.0 mi South 6.9 mph - N/A   Clear
7:15 AM 59.0 °F - 51.8 °F 77% 29.77 in 10.0 mi South 9.2 mph - N/A   Clear
7:35 AM 62.6 °F - 51.8 °F 68% 29.76 in 10.0 mi South 8.1 mph - N/A   Clear
7:55 AM 64.4 °F - 53.6 °F 68% 29.76 in 10.0 mi SSW 10.4 mph - N/A   Clear
8:15 AM 66.2 °F - 53.6 °F 64% 29.76 in 10.0 mi SSW 9.2 mph - N/A   Clear
8:35 AM 68.0 °F - 55.4 °F 64% 29.76 in 9.0 mi SSW 9.2 mph - N/A   Clear
8:55 AM 71.6 °F - 55.4 °F 57% 29.75 in 10.0 mi South 10.4 mph - N/A   Clear
9:15 AM 75.2 °F - 55.4 °F 50% 29.74 in 10.0 mi South 10.4 mph - N/A   Clear
9:35 AM 78.8 °F - 55.4 °F 44% 29.72 in 10.0 mi South 9.2 mph - N/A   Clear
9:55 AM 84.2 °F - 51.8 °F 33% 29.71 in 10.0 mi South 13.8 mph - N/A   Clear
10:15 AM 87.8 °F - 50.0 °F 27% 29.70 in 10.0 mi South 17.3 mph - N/A   Clear
10:35 AM 87.8 °F 85.7 °F 53.6 °F 31% 29.70 in 10.0 mi South 17.3 mph - N/A   Clear
10:55 AM 87.8 °F 85.7 °F 53.6 °F 31% 29.69 in 10.0 mi South 19.6 mph - N/A   Clear
11:15 AM 89.6 °F 87.3 °F 53.6 °F 29% 29.69 in 10.0 mi South 21.9 mph 28.8 mph N/A   Clear
11:35 AM 89.6 °F 87.3 °F 53.6 °F 29% 29.69 in 10.0 mi South 25.3 mph - N/A   Clear
11:55 AM 91.4 °F 89.1 °F 53.6 °F 28% 29.67 in 10.0 mi South 23.0 mph 29.9 mph N/A   Clear
12:15 PM 91.4 °F - 51.8 °F 26% 29.66 in 10.0 mi South 26.5 mph 35.7 mph N/A   Clear
12:35 PM 95.0 °F - 50.0 °F 22% 29.64 in 10.0 mi South 28.8 mph 34.5 mph N/A   Clear
12:55 PM 95.0 °F - 50.0 °F 22% 29.64 in 10.0 mi South 28.8 mph 35.7 mph N/A   Clear
1:15 PM 96.8 °F - 48.2 °F 19% 29.63 in 10.0 mi SSW 33.4 mph - N/A   Clear
1:35 PM 98.6 °F - 48.2 °F 18% 29.62 in 10.0 mi SW 29.9 mph 38.0 mph N/A   Clear
1:55 PM 98.6 °F - 48.2 °F 18% 29.61 in 10.0 mi SW 31.1 mph 39.1 mph N/A   Clear
2:15 PM 100.4 °F - 48.2 °F 17% 29.61 in 10.0 mi SW 26.5 mph 43.7 mph N/A   Clear
2:35 PM 100.4 °F - 46.4 °F 16% 29.59 in 10.0 mi SW 32.2 mph 42.6 mph N/A   Clear
2:55 PM 100.4 °F - 44.6 °F 15% 29.59 in 10.0 mi SW 26.5 mph 46.0 mph N/A   Clear
3:15 PM 102.2 °F - 42.8 °F 13% 29.57 in 10.0 mi SW 34.5 mph 44.9 mph N/A   Clear
3:35 PM 102.2 °F - 42.8 °F 13% 29.56 in 10.0 mi SW 36.8 mph 44.9 mph N/A   Clear
3:55 PM 98.6 °F - 42.8 °F 15% 29.56 in 10.0 mi WSW 27.6 mph 44.9 mph N/A   Clear
4:15 PM 98.6 °F - 41.0 °F 14% 29.56 in 10.0 mi WSW 28.8 mph 39.1 mph N/A   Clear
4:35 PM 98.6 °F - 42.8 °F 15% 29.55 in 10.0 mi WSW 24.2 mph 31.1 mph N/A   Clear
4:55 PM 98.6 °F - 42.8 °F 15% 29.55 in 10.0 mi WSW 29.9 mph 48.3 mph N/A   Clear
5:15 PM 96.8 °F - 42.8 °F 16% 29.55 in 10.0 mi WSW 27.6 mph 44.9 mph N/A   Clear
5:35 PM 95.0 °F - 48.2 °F 20% 29.55 in 10.0 mi SW 16.1 mph 25.3 mph N/A   Clear
5:55 PM 95.0 °F - 46.4 °F 19% 29.55 in 10.0 mi SW 18.4 mph - N/A   Clear
6:15 PM 93.2 °F - 46.4 °F 20% 29.55 in 10.0 mi WSW 19.6 mph 25.3 mph N/A   Clear
6:35 PM 96.8 °F - 46.4 °F 18% 29.55 in 10.0 mi WSW 21.9 mph 27.6 mph N/A   Clear
6:55 PM 95.0 °F - 44.6 °F 18% 29.56 in 10.0 mi NNW 16.1 mph - N/A   Clear
7:15 PM 95.0 °F - 44.6 °F 18% 29.57 in 10.0 mi NNW 16.1 mph 25.3 mph N/A   Clear
7:35 PM 93.2 °F - 42.8 °F 17% 29.58 in 10.0 mi NNW 12.7 mph 20.7 mph N/A   Clear
7:55 PM 89.6 °F - 41.0 °F 18% 29.59 in 10.0 mi North 10.4 mph - N/A   Clear
8:15 PM 87.8 °F - 41.0 °F 19% 29.61 in 10.0 mi NNW 16.1 mph 21.9 mph N/A   Clear
8:35 PM 86.0 °F - 41.0 °F 20% 29.62 in 10.0 mi NNW 13.8 mph - N/A   Clear
8:55 PM 82.4 °F - 42.8 °F 25% 29.63 in 10.0 mi NNW 9.2 mph 17.3 mph N/A   Clear
9:15 PM 80.6 °F - 42.8 °F 26% 29.65 in 10.0 mi North 10.4 mph 18.4 mph N/A   Clear
9:55 PM 78.8 °F - 39.2 °F 24% 29.68 in 10.0 mi NNW 10.4 mph - N/A   Clear
10:15 PM 77.0 °F - 37.4 °F 24% 29.69 in 10.0 mi NNW 11.5 mph - N/A   Clear
10:35 PM 75.2 °F - 35.6 °F 24% 29.69 in 10.0 mi NNW 12.7 mph - N/A   Clear
11:15 PM 71.6 °F - 35.6 °F 27% 29.71 in 10.0 mi NNW 8.1 mph - N/A   Clear
11:35 PM 66.2 °F - 37.4 °F 35% 29.72 in 10.0 mi NW 4.6 mph - N/A   Clear
11:55 PM 66.2 °F - 37.4 °F 35% 29.73 in 10.0 mi Calm Calm - N/A   Clear